sat.trackr.live / text

‹ back to catalog

STARLINK-6051

NORAD 56463 · 2023-064R

PAYLOAD ACTIVE UNKNOWN

§ Identity

Operator
Country
US
Launch date
2023-05-10
Launch site
AFWTR
Launch vehicle
Mass (kg)
RCS (m²)

Purposes: comms

External: N2YO · Heavens-Above · Gunter

§ Orbital elements

Epoch: 2026-09-20T13:28:44.782752Z

Period
96.11 min
Inclination
70.0004°
Eccentricity
0.0003191
Mean motion
14.98330783 rev/d
Perigee alt
569.8 km
Apogee alt
574.3 km
Semi-major
6,950.2 km
B*
3.4113e-6
RAAN
13.2026°
Arg perigee
269.5651°
Mean anomaly
90.5142°
Rev number
18,443

§ Raw data

STARLINK-60511 56463U 23064R   26263.56162943 -.00000052  00000+0  34113-5 0  99982 56463  70.0004  13.2026 0003191 269.5651  90.5142 14.98330783184436

JSON: /api/v1/satellites/56463 · /tle

For live sub-satellite position, see the globe view (requires WebGL).

§ Visibility from observer

Set your observer location to see the next 7 days of passes ≥ 10°. The values pass through the URL so the page stays shareable.

No JS? Fill the form by hand. The geolocation button needs JavaScript.